Weather History for Guatemala Aeropuertola Aurora, Guatemala

Change the Weather History Date:

Sunday, August 11, 2013

  Actual Average Record
Temperature  
Mean Temperature 70 °F -  
Max Temperature 78 °F 75 °F - ()
Min Temperature 61 °F 60 °F - ()
Cooling Degree Days 4    
Growing Degree Days 20 (Base 50)    
Moisture  
Dew Point 62 °F    
Average Humidity 79    
Maximum Humidity 94    
Minimum Humidity 55    
Precipitation  
Precipitation 0.00 in - - ()
Sea Level Pressure  
Sea Level Pressure 30.23 in    
Wind  
Wind Speed 8 mph ()    
Max Wind Speed 16 mph    
Max Gust Speed -    
Visibility 6.0 miles    
Events Rain , Thunderstorm    
T = Trace of Precipitation, MM = Missing Value Source: Averaged Metar Reports

Daily Weather History Graph

Daily Weather History Graph

Search for Another Location

Airport:

Trip Planner

Search our weather history database for the weather conditions in past years. The results will help you decide how hot, cold, wet, or windy it might be!

Date:

Astronomy

Aug. 11, 2013 Rise Set
Actual Time 5:47 AM CST 6:26 PM CST
Civil Twilight 5:25 AM CST 6:48 PM CST
Nautical Twilight 4:59 AM CST 7:15 PM CST
Astronomical Twilight 4:32 AM CST 7:41 PM CST
Moon 9:39 AM CST (8/11) 9:43 PM CST (8/11)
Length of Visible Light 13h 23m
Length of Day
12h 39m
Waxing Crescent, 22% of the Moon is Illuminated
Aug 11
Waxing Crescent
Aug 14
First Quarter
Aug 20
Full
Aug 28
Last Quarter
Sep 5
New

Hourly Weather History & Observations

Time (CST) Temp. Dew Point Humidity Pressure Visibility Wind Dir Wind Speed Gust Speed Precip Events Conditions
12:00 AM 66.2 °F 62.6 °F 88% 30.30 in 6.2 mi NNE 6.9 mph - N/A   Scattered Clouds
1:00 AM 64.4 °F 62.6 °F 94% 30.27 in 6.2 mi NNE 4.6 mph - N/A   Mostly Cloudy
2:00 AM 64.4 °F 62.6 °F 94% 30.27 in 6.2 mi NNE 6.9 mph - N/A   Scattered Clouds
3:00 AM 64.4 °F 62.6 °F 94% 30.30 in 6.2 mi North 6.9 mph - N/A   Mostly Cloudy
4:00 AM 64.4 °F 62.6 °F 94% 30.24 in 6.2 mi North 9.2 mph - N/A   Mostly Cloudy
5:00 AM 64.4 °F 62.6 °F 94% 30.24 in 6.2 mi North 9.2 mph - N/A   Mostly Cloudy
5:40 AM - - N/A% - 6.2 mi North 9.2 mph - N/A   Light Drizzle
6:00 AM 64 °F 62 °F 90% 29.97 in 25 mi North 9.2 mph - - Rain Light Drizzle
6:00 AM 64.4 °F 62.6 °F 94% 30.27 in 6.2 mi North 9.2 mph - N/A   Light Drizzle
7:00 AM 64.4 °F 62.6 °F 94% 30.30 in 6.2 mi North 11.5 mph - N/A   Mostly Cloudy
8:00 AM 68.0 °F 62.6 °F 83% 30.30 in 6.2 mi NE 6.9 mph - N/A   Mostly Cloudy
9:00 AM 69.8 °F 60.8 °F 73% 30.30 in 6.2 mi NNE 11.5 mph - N/A   Scattered Clouds
10:00 AM 69.8 °F 60.8 °F 73% 30.30 in 6.2 mi North 13.8 mph - N/A   Mostly Cloudy
11:00 AM 71.6 °F 60.8 °F 69% 30.30 in 6.2 mi North 13.8 mph - N/A   Scattered Clouds
12:00 PM 75.2 °F 60.8 °F 61% 30.27 in 6.2 mi NNE 13.8 mph - N/A   Scattered Clouds
1:00 PM 77.0 °F 60.8 °F 57% 30.24 in 6.2 mi NE 11.5 mph - N/A   Scattered Clouds
2:00 PM 75.2 °F 62.6 °F 65% 30.21 in 6.2 mi NNE 11.5 mph - N/A Thunderstorm Thunderstorm
3:00 PM 73.4 °F 60.8 °F 65% 30.21 in 6.2 mi NNE 11.5 mph - N/A   Mostly Cloudy
4:00 PM 75.2 °F 59.0 °F 57% 30.18 in 6.2 mi NNE 9.2 mph - N/A   Mostly Cloudy
5:00 PM 75.2 °F 59.0 °F 57% 30.18 in 6.2 mi NNE 11.5 mph - N/A   Mostly Cloudy
6:00 PM 73 °F 60 °F 55% 29.86 in 25 mi NNE 6.9 mph - -   Partly Cloudy
6:00 PM 73.4 °F 60.8 °F 65% 30.18 in 6.2 mi NNE 6.9 mph - N/A   Scattered Clouds
6:30 PM - - N/A% - 5.0 mi North 16.1 mph - N/A Rain Light Rain
6:40 PM - - N/A% - 6.2 mi North 13.8 mph - N/A   Light Drizzle
7:00 PM 69.8 °F 62.6 °F 78% 30.24 in 6.2 mi North 9.2 mph - N/A   Light Drizzle
8:00 PM 68.0 °F 64.4 °F 88% 30.24 in 6.2 mi North 13.8 mph - N/A   Light Drizzle
9:00 PM 66.2 °F 64.4 °F 94% 30.27 in 6.2 mi North 6.9 mph - N/A   Mostly Cloudy
9:40 PM - - N/A% - 6.2 mi North 11.5 mph - N/A   Light Drizzle
10:00 PM 66.2 °F 64.4 °F 94% 30.30 in 6.2 mi North 11.5 mph - N/A   Drizzle
10:08 PM - - N/A% - 1.9 mi North 9.2 mph - N/A Rain Rain
10:20 PM - - N/A% - 6.2 mi North 5.8 mph - N/A   Light Drizzle
11:00 PM 66.2 °F 64.4 °F 94% 30.30 in 6.2 mi North 11.5 mph - N/A   Drizzle